sat.trackr.live / text

‹ back to catalog

2024-092E

NORAD 59777 · 2024-092E

PAYLOAD ACTIVE UNKNOWN

§ Identity

Operator
Country
CIS
Launch date
2024-05-16
Launch site
PLMSC
Launch vehicle
Mass (kg)
RCS (m²)

External: N2YO · Heavens-Above · Gunter

§ Orbital elements

Epoch: 2026-05-24T22:08:10.463712Z

Period
93.76 min
Inclination
97.6542°
Eccentricity
0.0006876
Mean motion
15.35905617 rev/d
Perigee alt
453.5 km
Apogee alt
462.9 km
Semi-major
6,836.4 km
B*
5.0413e-4
RAAN
277.0178°
Arg perigee
223.7841°
Mean anomaly
136.2858°
Rev number
11,217

§ Raw data

2024-092E1 59777U 24092E   26144.92234333  .00017565  00000+0  50413-3 0  99972 59777  97.6542 277.0178 0006876 223.7841 136.2858 15.35905617112173

JSON: /api/v1/satellites/59777 · /tle

For live sub-satellite position, see the globe view (requires WebGL).

§ Visibility from observer

Set your observer location to see the next 7 days of passes ≥ 10°. The values pass through the URL so the page stays shareable.

No JS? Fill the form by hand. The geolocation button needs JavaScript.

§ Radio — SatNOGS DB

ModeDescriptionDownlinkUplink
FSK Telemetry 401.080 MHz

1 transmitter · refreshed weekly from db.satnogs.org